Wind_Speed
54 56 57 58 60 60 61 61 60 60 59 58 57 55 54 52 50 48 47 45 44 43 42 42 42 42 41 40 39 39 39 39 39 38 38 40 41 41 42 43 45 47
55 56 58 60 61 62 63 63 62 62 61 60 59 58 57 55 53 51 49 48 46 45 44 43 42 43 42 41 41 41 41 41 41 41 41 40 42 43 44 45 46 47
56 57 59 61 62 63 64 64 64 64 63 62 61 60 59 58 56 54 52 50 49 47 46 45 44 43 43 43 43 43 43 43 43 44 43 42 44 46 47 48 48 47
57 58 60 62 63 65 66 66 66 65 65 64 63 62 62 60 58 56 55 53 51 50 49 47 46 45 45 45 45 45 45 45 45 45 45 45 46 48 50 50 50 49
60 60 62 63 65 66 67 67 67 67 67 66 65 64 63 62 60 58 57 55 54 53 51 49 48 47 47 48 48 48 48 48 47 47 47 48 49 50 52 52 51 50
62 62 63 65 66 68 68 69 69 69 68 67 66 65 64 63 61 60 58 57 55 54 53 51 49 49 48 49 50 51 51 51 51 50 50 51 52 53 54 53 52 51
64 64 65 67 68 69 70 71 71 71 71 70 68 66 65 63 62 61 59 58 56 55 54 52 51 50 50 50 52 53 53 54 54 54 54 54 54 55 56 54 52 51
65 66 68 68 70 71 72 73 73 73 72 71 70 68 66 64 63 61 60 59 57 56 55 54 53 52 52 52 53 55 56 56 56 57 56 55 55 57 57 56 52 50
67 68 70 70 72 73 74 75 75 75 74 72 71 70 68 66 64 63 61 60 59 58 56 55 54 54 53 54 55 56 57 58 58 58 58 58 58 58 58 57 54 51
69 70 71 72 73 74 75 76 76 76 76 73 71 69 68 66 65 63 62 61 60 58 57 56 55 54 54 55 55 57 59 60 59 60 61 61 58 57 58 57 55 53
72 72 73 73 75 76 77 78 78 78 77 75 72 70 68 67 65 64 63 61 60 58 56 55 54 54 55 55 55 56 58 60 61 61 64 64 61 58 58 57 55 54
74 74 74 74 76 77 78 79 79 79 78 76 74 71 69 67 65 64 62 60 59 56 55 53 53 54 55 55 55 56 58 60 61 62 65 67 67 65 62 60 57 55
75 74 74 75 77 78 80 80 80 81 80 78 75 73 70 68 66 64 62 60 58 56 54 53 53 55 56 55 56 57 58 60 61 62 65 67 67 67 64 61 59 56
75 74 75 76 78 80 81 82 82 82 81 79 77 74 71 70 67 64 62 60 59 57 55 54 55 56 57 57 57 58 58 59 60 62 64 65 65 64 62 60 57 55
77 76 77 78 81 83 83 84 84 83 82 80 77 75 73 71 68 66 63 61 60 58 56 56 57 58 59 58 58 58 58 60 62 63 63 63 62 61 59 56 54 52
79 79 79 81 84 85 86 86 86 85 84 81 79 77 74 71 68 66 64 61 59 58 57 57 58 60 61 61 60 60 61 63 64 64 63 62 60 58 55 51 49 48
81 81 81 83 86 87 88 88 87 87 85 82 80 76 72 69 67 64 62 61 59 59 58 58 59 61 62 62 62 63 66 67 65 64 63 61 59 56 52 48 45 44
82 82 83 85 87 88 89 89 89 88 86 83 79 75 71 69 66 62 62 62 61 60 60 59 60 62 63 62 63 67 70 69 67 65 63 61 58 54 50 45 42 41
83 83 85 86 87 89 90 91 91 89 86 82 78 73 70 69 65 63 64 63 61 61 61 60 61 63 63 63 66 70 71 70 68 66 63 60 56 51 47 43 40 39
84 85 86 87 88 89 90 92 92 90 86 81 77 72 69 66 64 64 65 63 61 62 63 63 63 63 63 66 69 71 71 70 69 66 63 60 55 49 45 41 38 37
85 87 88 89 89 89 91 92 92 90 85 79 75 71 67 64 64 65 66 63 61 63 65 65 65 65 66 68 70 71 71 71 70 67 64 60 55 49 44 40 37 36
87 89 90 91 91 91 92 92 91 89 84 77 73 71 67 65 65 66 66 63 63 66 68 67 67 67 68 70 71 71 71 71 70 68 65 60 56 51 45 40 37 35
88 90 92 93 93 92 92 92 91 88 81 75 72 70 67 65 67 67 66 65 65 68 70 69 70 71 71 71 71 72 72 71 71 69 64 59 55 51 46 41 36 34
89 92 94 94 94 94 94 92 90 85 79 74 72 69 67 66 68 69 68 67 68 71 71 70 72 74 73 73 74 74 73 72 72 69 63 58 55 51 46 40 35 33
91 93 94 95 96 95 94 92 88 82 76 73 70 68 67 67 69 71 70 70 72 74 73 73 75 76 76 76 77 76 74 73 72 69 62 57 54 50 45 39 34 32
93 94 95 96 96 96 94 90 82 74 71 71 69 67 67 69 72 73 72 72 74 75 73 75 78 79 78 78 78 78 77 75 73 69 61 56 54 50 44 38 32 30
Wind_Direction
338 338 338 338 338 338 337 336 334 333 331 329 327 325 323 320 317 314 309 306 303 300 297 295 293 291 288 285 283 282 282 282 284 285 286 288 290 289 288 286 283 281
336 337 337 337 337 337 336 335 334 332 331 329 327 325 323 321 318 315 311 308 305 302 299 296 294 292 289 287 285 283 283 284 285 286 288 290 291 292 291 288 284 281
335 335 335 336 336 335 335 334 333 332 330 329 327 325 323 322 319 316 313 310 306 303 300 298 296 293 291 288 286 284 283 284 285 286 288 291 293 294 293 290 286 281
334 334 334 334 334 334 334 333 333 331 330 329 327 325 323 322 320 317 314 311 307 304 301 299 297 295 293 290 288 286 285 285 286 287 290 292 294 294 293 291 286 282
333 333 333 333 333 333 333 332 332 331 330 328 327 325 323 322 320 317 314 311 308 305 302 300 298 296 295 293 291 289 288 288 288 289 292 294 294 294 294 291 287 283
332 332 332 332 331 332 332 332 331 331 330 328 327 325 323 322 320 317 314 311 309 306 304 302 299 297 296 294 293 292 291 290 291 291 292 293 293 294 294 292 288 285
331 330 330 330 330 331 331 331 331 330 329 328 327 325 323 321 319 317 314 312 310 308 305 303 301 299 297 296 295 294 292 292 292 293 293 293 294 295 295 292 289 286
329 329 329 329 330 330 330 330 330 330 329 328 326 325 323 321 319 317 315 313 311 309 306 305 303 301 300 298 297 295 294 293 293 293 293 294 295 296 295 293 290 287
328 328 329 329 329 329 329 329 329 329 328 327 326 325 323 322 320 318 316 313 311 309 307 305 304 303 302 299 298 297 296 295 295 295 295 296 296 296 295 294 292 288
327 326 327 327 328 328 328 328 328 328 328 327 325 324 322 321 319 317 315 313 311 309 307 306 305 304 302 300 299 299 298 298 298 299 298 296 296 296 297 296 294 290
325 325 326 327 327 327 327 327 327 327 327 326 325 324 322 321 320 317 315 312 310 308 307 306 305 304 302 301 301 300 300 301 302 303 303 301 301 302 301 299 295 291
323 323 325 326 326 326 326 326 327 327 326 326 325 324 322 321 319 317 314 311 310 308 306 306 306 305 304 303 303 303 302 303 304 305 307 307 307 306 304 301 297 293
320 321 323 324 325 325 325 326 326 326 326 325 324 323 322 320 318 316 313 311 310 308 308 308 307 306 305 305 305 305 305 305 306 307 307 307 306 305 303 301 297 292
318 320 323 324 324 324 325 326 326 326 326 325 324 323 321 320 317 315 313 312 310 309 309 309 309 308 307 306 306 306 306 307 307 308 308 307 305 303 301 299 295 291
318 321 323 323 324 324 325 325 326 326 325 324 323 322 320 318 316 314 313 311 310 309 309 310 310 309 308 308 308 307 308 310 311 311 311 309 306 303 301 298 294 289
319 321 323 323 323 324 324 325 325 325 325 324 323 321 319 316 315 313 312 311 310 309 310 311 310 310 310 310 310 310 311 313 314 315 314 312 309 306 302 298 293 288
318 321 322 322 323 324 324 324 325 324 324 323 322 320 317 315 314 313 312 311 310 310 310 311 311 311 312 313 313 313 314 316 317 318 318 315 312 309 305 300 294 288
318 320 321 321 322 323 323 324 324 323 323 322 321 319 316 314 313 312 312 311 310 310 311 311 312 313 313 314 315 316 317 318 320 321 321 318 315 312 307 302 295 288
317 318 320 320 322 322 323 323 322 323 323 322 320 318 315 313 311 310 311 311 310 311 311 311 313 314 314 315 316 318 319 320 321 323 323 321 318 314 309 304 297 288
316 317 318 320 321 321 322 322 322 322 322 321 319 317 314 312 309 309 310 310 310 311 312 312 314 314 314 315 317 318 320 321 322 324 324 322 319 316 312 306 298 290
315 316 317 319 320 321 321 321 321 321 321 319 318 316 314 312 310 309 310 310 310 312 313 313 314 314 314 316 318 319 320 322 324 325 325 323 320 318 314 308 300 291
314 315 317 318 320 320 321 321 321 320 320 318 317 316 314 312 310 309 309 310 311 312 313 313 313 313 314 317 319 320 321 323 325 326 325 323 321 319 316 310 302 291
314 315 317 318 319 320 320 320 319 319 318 317 316 314 312 311 310 309 309 309 310 311 311 312 312 313 315 318 319 320 321 324 326 326 324 323 321 319 316 310 302 291
314 315 316 318 319 319 319 319 318 317 316 315 314 312 310 310 310 309 309 308 309 310 310 311 312 315 317 318 320 321 322 324 326 325 324 322 321 319 315 310 302 289
314 315 316 317 318 318 318 318 317 315 314 312 311 309 308 309 308 307 307 307 308 309 310 311 313 315 317 318 320 321 323 325 325 324 323 321 320 318 314 310 300 286
314 315 316 316 317 317 316 315 314 313 313 312 310 307 306 306 305 305 304 305 306 308 309 311 313 316 317 318 320 321 322 323 322 321 322 322 320 317 313 308 299 283
Height
10901 10898 10894 10891 10887 10884 10880 10877 10873 10870 10866 10863 10860 10857 10854 10851 10849 10846 10843 10840 10838 10836 10834 10831 10828 10826 10825 10824 10823 10822 10821 10819 10818 10818 10817 10815 10813 10812 10811 10809 10807 10805
10898 10894 10890 10887 10883 10879 10876 10872 10868 10865 10861 10858 10855 10852 10849 10846 10842 10839 10836 10833 10831 10829 10827 10825 10823 10820 10818 10817 10815 10815 10814 10812 10810 10809 10808 10807 10805 10804 10803 10801 10800 10798
10894 10891 10887 10883 10879 10875 10871 10868 10864 10860 10857 10853 10849 10846 10843 10840 10836 10833 10830 10827 10824 10821 10819 10817 10816 10814 10812 10810 10808 10807 10806 10805 10804 10802 10800 10799 10798 10796 10794 10793 10791 10791
10890 10887 10883 10879 10876 10872 10868 10864 10860 10856 10852 10848 10844 10840 10836 10833 10830 10827 10823 10820 10817 10814 10812 10810 10808 10807 10805 10803 10801 10799 10798 10797 10796 10794 10792 10790 10789 10787 10786 10784 10782 10782
10886 10882 10879 10875 10871 10867 10863 10859 10855 10851 10847 10843 10839 10834 10830 10827 10824 10820 10817 10813 10810 10807 10805 10803 10801 10799 10797 10794 10792 10790 10789 10788 10787 10785 10783 10781 10780 10778 10777 10775 10773 10772
10881 10877 10874 10871 10867 10863 10858 10854 10850 10845 10841 10837 10833 10829 10825 10821 10817 10813 10810 10806 10803 10800 10797 10795 10793 10791 10789 10786 10784 10782 10780 10779 10777 10776 10774 10772 10770 10770 10769 10767 10764 10761
10876 10873 10869 10866 10862 10857 10852 10848 10844 10840 10835 10831 10827 10824 10819 10815 10811 10807 10803 10799 10796 10792 10789 10787 10785 10783 10781 10779 10776 10774 10771 10770 10768 10766 10764 10763 10761 10760 10759 10757 10755 10751
10871 10867 10864 10860 10855 10851 10846 10842 10838 10834 10830 10825 10820 10816 10812 10809 10804 10800 10796 10792 10788 10785 10781 10779 10777 10775 10773 10771 10768 10765 10763 10761 10760 10758 10756 10754 10752 10750 10748 10746 10744 10741
10865 10861 10857 10854 10849 10845 10840 10836 10833 10829 10825 10820 10814 10809 10804 10800 10797 10792 10788 10785 10781 10777 10774 10771 10769 10767 10764 10762 10759 10757 10754 10752 10751 10749 10747 10745 10743 10740 10736 10733 10731 10730
10860 10856 10853 10849 10845 10840 10835 10831 10827 10822 10818 10815 10810 10805 10800 10795 10791 10786 10782 10778 10774 10770 10767 10764 10762 10759 10756 10753 10751 10748 10745 10742 10741 10739 10735 10733 10732 10729 10725 10721 10718 10716
10855 10852 10849 10844 10839 10834 10830 10825 10821 10816 10811 10807 10803 10799 10794 10789 10784 10779 10775 10771 10767 10764 10761 10758 10755 10752 10748 10746 10743 10741 10737 10734 10732 10729 10723 10718 10717 10715 10712 10709 10706 10704
10849 10846 10843 10839 10834 10828 10824 10819 10814 10810 10804 10800 10795 10791 10786 10781 10777 10772 10768 10764 10761 10757 10754 10751 10749 10745 10741 10739 10736 10732 10729 10725 10723 10720 10714 10707 10703 10701 10699 10696 10694 10691
10846 10843 10839 10834 10829 10823 10818 10813 10807 10802 10797 10792 10788 10783 10779 10774 10770 10765 10761 10757 10753 10750 10747 10744 10741 10738 10734 10732 10729 10725 10721 10717 10714 10711 10706 10700 10695 10691 10688 10685 10682 10680
10842 10838 10833 10828 10822 10816 10811 10806 10801 10796 10790 10785 10779 10775 10770 10766 10761 10757 10753 10749 10746 10743 10740 10737 10734 10730 10727 10725 10722 10718 10715 10711 10707 10704 10698 10692 10687 10682 10678 10675 10671 10668
10833 10829 10825 10820 10814 10808 10803 10798 10793 10788 10782 10777 10772 10767 10762 10757 10753 10748 10745 10741 10738 10735 10732 10729 10726 10722 10719 10717 10714 10710 10707 10704 10700 10696 10690 10684 10678 10673 10669 10666 10661 10658
10823 10820 10816 10811 10806 10800 10795 10790 10785 10780 10774 10769 10764 10759 10754 10749 10744 10740 10737 10734 10731 10727 10725 10722 10718 10714 10710 10708 10705 10701 10698 10695 10690 10686 10680 10673 10668 10663 10660 10656 10652 10648
10815 10812 10809 10804 10798 10793 10787 10782 10777 10772 10767 10762 10756 10751 10746 10741 10736 10732 10729 10726 10723 10720 10717 10714 10711 10707 10703 10699 10696 10692 10689 10685 10681 10676 10670 10664 10658 10653 10649 10647 10643 10640
10809 10806 10802 10797 10792 10786 10780 10774 10769 10764 10759 10754 10749 10743 10738 10733 10729 10725 10722 10719 10716 10713 10710 10707 10704 10700 10696 10692 10689 10685 10680 10676 10672 10667 10661 10655 10649 10644 10640 10637 10635 10632
10802 10799 10796 10791 10786 10779 10773 10767 10761 10757 10753 10747 10741 10736 10730 10726 10722 10718 10715 10712 10709 10706 10703 10700 10697 10694 10690 10686 10682 10678 10673 10667 10663 10659 10653 10647 10642 10637 10633 10630 10627 10625
10795 10792 10789 10785 10780 10773 10766 10760 10754 10749 10745 10740 10734 10728 10724 10720 10716 10712 10708 10705 10702 10699 10695 10692 10690 10686 10683 10680 10675 10670 10665 10660 10655 10651 10645 10640 10635 10630 10626 10623 10620 10618
10788 10784 10780 10777 10773 10767 10760 10753 10746 10741 10737 10732 10726 10721 10717 10713 10709 10705 10702 10699 10696 10692 10688 10685 10682 10679 10676 10672 10667 10662 10658 10653 10648 10643 10638 10633 10628 10624 10620 10617 10615 10612
10781 10776 10772 10768 10764 10759 10753 10746 10740 10734 10730 10724 10718 10714 10710 10707 10703 10699 10695 10693 10689 10685 10681 10678 10674 10671 10668 10665 10660 10656 10651 10646 10641 10635 10631 10626 10621 10617 10614 10611 10609 10606
10773 10768 10763 10759 10755 10750 10745 10739 10733 10727 10722 10717 10711 10707 10703 10699 10695 10691 10688 10685 10682 10678 10674 10671 10666 10662 10660 10657 10653 10648 10644 10639 10634 10629 10624 10620 10615 10611 10608 10605 10603 10601
10766 10761 10755 10750 10746 10741 10736 10731 10725 10719 10713 10709 10705 10699 10695 10691 10687 10683 10680 10677 10673 10670 10666 10663 10659 10654 10651 10649 10645 10641 10636 10632 10627 10622 10619 10614 10610 10606 10602 10600 10598 10596
10759 10754 10748 10742 10737 10733 10728 10722 10717 10710 10704 10701 10697 10692 10687 10683 10679 10675 10672 10669 10665 10662 10658 10655 10650 10646 10643 10641 10637 10633 10629 10624 10620 10616 10612 10608 10604 10600 10597 10594 10593 10591
10750 10746 10741 10735 10729 10724 10720 10715 10709 10702 10697 10693 10689 10684 10680 10676 10671 10668 10666 10662 10658 10654 10651 10647 10642 10637 10635 10632 10629 10625 10621 10617 10614 10609 10606 10602 10598 10594 10591 10589 10588 10586